Location: Mahannah Oil Field
(37.4664°N, 96.6003°W)
Time: 08:28:38
(UTC+00:00)

Explorer 11/Cluster Stage 4 - Visible Passes

Search period start: 24 January 2021 00:00
Search period end: 03 February 2021 00:00
Orbit: 467 x 1258 km, 28.8° (Epoch: 23 January)

Date Brightness Start Highest point End Pass type
(mag) Time Alt. Az. Time Alt. Az. Time Alt. Az.
24 Jan 8.7 01:33:08 10° S 01:35:09 12° SSE 01:35:09 12° SSE visible
25 Jan 8.6 01:21:45 10° S 01:24:19 13° SSE 01:24:56 13° SE visible
25 Jan 9.3 03:06:53 10° SW 03:07:04 11° SW 03:07:04 11° SW visible
26 Jan 8.5 01:10:30 10° S 01:13:14 14° SSE 01:14:42 13° SE visible
26 Jan 9.0 02:55:59 10° SW 02:56:50 14° SW 02:56:50 14° SW visible
27 Jan 8.4 00:59:21 10° S 01:02:12 15° SSE 01:04:27 12° SE visible
27 Jan 8.7 02:45:08 10° SW 02:46:33 18° SW 02:46:33 18° SW visible
28 Jan 8.2 00:48:16 10° SSW 00:51:10 16° SSE 00:54:10 11° ESE visible
28 Jan 8.4 02:34:17 10° SW 02:36:17 22° SW 02:36:17 22° SW visible
29 Jan 8.1 00:37:15 10° SSW 00:40:11 17° SSE 00:43:28 10° ESE visible
29 Jan 8.1 02:23:29 10° SW 02:26:01 25° SSW 02:26:01 25° SSW visible
30 Jan 8.0 00:26:16 10° SSW 00:29:11 18° SSE 00:32:30 10° ESE visible
30 Jan 7.8 02:12:43 10° WSW 02:15:45 28° SSW 02:15:45 28° SSW visible
31 Jan 7.9 00:15:20 10° SSW 00:18:15 19° SSE 00:21:31 10° ESE visible
31 Jan 7.6 02:01:58 10° WSW 02:05:28 30° S 02:05:28 30° S visible
01 Feb 7.5 01:51:14 10° WSW 01:55:04 29° S 01:55:12 29° S visible
02 Feb 7.5 01:40:31 10° WSW 01:44:09 27° S 01:44:58 26° SSE visible
